Boise, ID

4:48 AM MST on February 13, 2016 (GMT -0700)
Boise Air Term

Weather History for KBOI - March, 2013

Change the Weather History Date:

Sunday, March 3, 2013

  Actual Average Record
Temperature  
Mean Temperature 39 °F 41 °F  
Max Temperature 48 °F 51 °F 70 °F (1921)
Min Temperature 30 °F 32 °F 14 °F (1966)
Degree Days  
Heating Degree Days 26 24  
Month to date heating degree days 63 72  
Since 1 July heating degree days 4160 4231  
Cooling Degree Days 0 0  
Month to date cooling degree days 0 0  
Year to date cooling degree days 0 0  
Moisture  
Dew Point 25 °F    
Average Humidity 55    
Maximum Humidity 89    
Minimum Humidity 20    
Precipitation  
Precipitation 0.02 in 0.04 in 0.37 in (1947)
Month to date precipitation 0.02 0.12  
Year to date precipitation 1.86 2.35  
Snow  
Snow 0.00 in 0.10 in 1.80 in (1962)
Month to date snowfall 0.0 0.2  
Since 1 July snowfall 15.7 17.8  
Snow Depth 0.00 in    
Sea Level Pressure  
Sea Level Pressure 30.03 in    
Wind  
Wind Speed 10 mph (NW)    
Max Wind Speed 26 mph    
Max Gust Speed 33 mph    
Visibility 8 miles    
Events Rain    
T = Trace of Precipitation, MM = Missing Value Source: NWS Daily Summary

Daily Weather History Graph

Daily Weather History Graph

Search for Another Location

Airport or City:

Trip Planner

Search our weather history database for the weather conditions in past years. The results will help you decide how hot, cold, wet, or windy it might be!

Date:

Astronomy

Mar. 03, 2013 Rise Set
Actual Time 7:17 AM MST 6:36 PM MST
Civil Twilight 6:48 AM MST 7:05 PM MST
Nautical Twilight 6:15 AM MST 7:38 PM MST
Astronomical Twilight 5:42 AM MST 8:11 PM MST
Moon 12:31 AM MST (3/3) 10:24 AM MST (3/3)
Length of Visible Light 12h 16m
Length of Day
11h 19m
Waning Gibbous, 63% of the Moon is Illuminated
Mar 3
Waning Gibbous
Mar 4
Last Quarter
Mar 11
New
Mar 19
First Quarter
Mar 27
Full

Hourly Weather History & Observations

Time (MST) Temp. Windchill Dew Point Humidity Pressure Visibility Wind Dir Wind Speed Gust Speed Precip Events Conditions
12:53 AM 43.0 °F 40.3 °F 39.0 °F 86% 30.01 in 7.0 mi WNW 4.6 mph - N/A   Overcast
1:53 AM 42.1 °F 39.2 °F 39.0 °F 89% 30.01 in 7.0 mi WNW 4.6 mph - N/A   Overcast
2:53 AM 41.0 °F - 37.9 °F 89% 29.99 in 6.0 mi Calm Calm - N/A   Overcast
3:53 AM 41.0 °F - 37.4 °F 87% 30.00 in 7.0 mi Calm Calm - N/A   Mostly Cloudy
4:53 AM 41.0 °F - 39.0 °F 93% 30.00 in 6.0 mi Calm Calm - 0.00 in Rain Light Rain
5:53 AM 41.0 °F - 39.0 °F 93% 30.00 in 6.0 mi Calm Calm - 0.00 in Rain Light Rain
6:53 AM 42.1 °F - 39.9 °F 92% 29.99 in 5.0 mi Calm Calm - 0.00 in   Overcast
7:53 AM 42.1 °F - 39.9 °F 92% 30.00 in 4.0 mi Calm Calm - 0.01 in Rain Light Rain
8:53 AM 42.1 °F 39.2 °F 39.9 °F 92% 30.01 in 4.0 mi WNW 4.6 mph - 0.00 in   Overcast
9:41 AM 42.8 °F 38.0 °F 41.0 °F 93% 30.01 in 6.0 mi West 8.1 mph - N/A   Mostly Cloudy
9:53 AM 44.1 °F 38.6 °F 39.9 °F 85% 30.02 in 9.0 mi WNW 10.4 mph - N/A   Overcast
10:53 AM 44.1 °F 36.5 °F 37.0 °F 76% 30.04 in 10.0 mi NW 17.3 mph 21.9 mph N/A   Overcast
11:53 AM 44.1 °F 35.4 °F 26.1 °F 49% 30.05 in 10.0 mi NW 21.9 mph 28.8 mph N/A   Overcast
12:53 PM 46.0 °F 38.3 °F 19.0 °F 34% 30.04 in 10.0 mi NW 20.7 mph 27.6 mph N/A   Scattered Clouds
1:53 PM 46.9 °F - 15.1 °F 28% 30.02 in 10.0 mi NNW 21.9 mph 31.1 mph N/A   Clear
2:53 PM 46.9 °F - 8.1 °F 21% 30.01 in 10.0 mi NNW 21.9 mph 32.2 mph N/A   Clear
3:53 PM 46.9 °F - 8.1 °F 21% 30.01 in 10.0 mi North 18.4 mph - N/A   Clear
4:53 PM 45.0 °F 36.2 °F 8.1 °F 22% 30.02 in 10.0 mi NNW 24.2 mph 32.2 mph N/A   Clear
5:53 PM 43.0 °F 34.2 °F 5.0 °F 21% 30.03 in 10.0 mi NNW 20.7 mph 31.1 mph N/A   Clear
6:53 PM 39.9 °F 32.5 °F 9.0 °F 28% 30.04 in 10.0 mi NNW 12.7 mph - N/A   Clear
7:53 PM 37.0 °F 31.0 °F 12.9 °F 37% 30.07 in 10.0 mi NW 8.1 mph - N/A   Clear
8:53 PM 35.1 °F 29.3 °F 15.1 °F 44% 30.08 in 10.0 mi NW 6.9 mph - N/A   Clear
9:53 PM 35.1 °F 30.1 °F 12.9 °F 40% 30.10 in 10.0 mi WNW 5.8 mph - N/A   Clear
10:53 PM 32.0 °F 24.2 °F 15.1 °F 50% 30.12 in 10.0 mi WNW 9.2 mph - N/A   Clear
11:53 PM 30.0 °F 22.4 °F 15.1 °F 54% 30.14 in 10.0 mi West 8.1 mph - N/A   Clear